Location: Iesi
(43.5167°N, 13.2333°E)
Time: 01:49:03
(UTC+00:00)

Cosmos 1782 - Pass Details

Date: 08 August 2020
Orbit: 539 x 550 km, 82.5° (Epoch: 19 September)

Event Time Altitude Azimuth Distance (km) Brightness Sun altitude
Rises 18:51:26 0° 352° (N) 2,724 6.9 -5.9°
Reaches altitude 10° 18:53:36 10° 353° (N) 1,827 6.0 -6.3°
Maximum altitude 18:57:38 84° 82° (E) 557 2.8 -6.9°
Drops below altitude 10° 19:01:38 10° 171° (S) 1,817 5.1 -7.6°
Sets 19:03:48 0° 172° (S) 2,707 6.0 -7.9°
